Palmer, AK

3:15 PM AKST on November 21, 2017 (GMT -0900)
Palmer Municipal

Weather History for PAAQ - September, 2013

Change the Weather History Date:

Tuesday, September 17, 2013

  Actual Average Record
Temperature  
Mean Temperature 46 °F -  
Max Temperature 50 °F 56 °F 63 °F (1957)
Min Temperature 43 °F 38 °F 21 °F (1955)
Degree Days  
Heating Degree Days 20    
Moisture  
Dew Point 44 °F    
Average Humidity 92    
Maximum Humidity 97    
Minimum Humidity 86    
Precipitation  
Precipitation 0.12 in - - ()
Sea Level Pressure  
Sea Level Pressure 29.49 in    
Wind  
Wind Speed 1 mph (ENE)    
Max Wind Speed 4 mph    
Max Gust Speed -    
Visibility 10 miles    
Events Rain    
Averages and records for this station are not official NWS values.
T = Trace of Precipitation, MM = Missing Value Source: NWS Daily Summary

Daily Weather History Graph

Daily Weather History Graph

Search for Another Location

Airport or City:

Trip Planner

Search our weather history database for the weather conditions in past years. The results will help you decide how hot, cold, wet, or windy it might be!

Date:

Astronomy

Sep. 17, 2013 Rise Set
Actual Time 7:28 AM AKDT 8:11 PM AKDT
Civil Twilight 6:44 AM AKDT 8:55 PM AKDT
Nautical Twilight 5:49 AM AKDT 9:49 PM AKDT
Astronomical Twilight 4:47 AM AKDT 10:50 PM AKDT
Moon 7:13 PM AKDT (9/17) 5:13 AM AKDT (9/17)
Length of Visible Light 14h 10m
Length of Day
12h 42m
Waxing Gibbous, 96% of the Moon is Illuminated
Sep 17
Waxing Gibbous
Sep 19
Full
Sep 26
Last Quarter
Oct 4
New
Oct 11
First Quarter

Hourly Weather History & Observations

Time (AKDT) Temp. Windchill Dew Point Humidity Pressure Visibility Wind Dir Wind Speed Gust Speed Precip Events Conditions
12:53 AM 45.0 °F 43.5 °F 43.0 °F 93% 29.50 in 10.0 mi ENE 3.5 mph - N/A   Overcast
1:53 AM 44.1 °F - 42.1 °F 93% 29.50 in 10.0 mi Calm Calm - N/A   Overcast
2:53 AM 44.1 °F - 42.1 °F 93% 29.49 in 10.0 mi Calm Calm - N/A   Overcast
3:53 AM 43.0 °F - 41.0 °F 93% 29.48 in 10.0 mi Calm Calm - N/A   Overcast
4:53 AM 43.0 °F - 42.1 °F 97% 29.48 in 10.0 mi Calm Calm - N/A   Overcast
5:53 AM 44.1 °F - 43.0 °F 96% 29.48 in 10.0 mi Calm Calm - 0.00 in Rain Light Rain
6:53 AM 43.0 °F 41.3 °F 42.1 °F 97% 29.48 in 10.0 mi SSE 3.5 mph - 0.00 in Rain Light Rain
7:53 AM 45.0 °F - 42.1 °F 90% 29.48 in 10.0 mi Calm Calm - 0.00 in Rain Light Rain
8:53 AM 45.0 °F - 43.0 °F 93% 29.48 in 10.0 mi Calm Calm - 0.01 in Rain Light Rain
9:53 AM 46.0 °F - 43.0 °F 89% 29.48 in 10.0 mi Calm Calm - 0.01 in Rain Light Rain
10:53 AM 46.0 °F 44.8 °F 42.1 °F 86% 29.48 in 10.0 mi North 3.5 mph - 0.00 in Rain Light Rain
11:53 AM 46.9 °F - 44.1 °F 90% 29.49 in 6.0 mi NNW 3.5 mph - 0.03 in Rain Light Rain
12:53 PM 48.0 °F - 44.1 °F 86% 29.48 in 10.0 mi Calm Calm - 0.00 in   Overcast
1:53 PM 48.9 °F - 45.0 °F 86% 29.48 in 10.0 mi Calm Calm - 0.00 in   Overcast
2:53 PM 48.9 °F - 45.0 °F 86% 29.48 in 10.0 mi Calm Calm - N/A   Overcast
3:06 PM 48.2 °F - 46.4 °F 93% 29.47 in 10.0 mi SSE 3.5 mph - N/A   Overcast
3:53 PM 48.9 °F - 46.9 °F 93% 29.48 in 10.0 mi Calm Calm - 0.01 in Rain Light Rain
4:41 PM 48.2 °F - 46.4 °F 93% 29.47 in 10.0 mi Calm Calm - 0.00 in Rain Light Rain
4:53 PM 48.9 °F - 46.0 °F 90% 29.48 in 10.0 mi Calm Calm - 0.01 in Rain Light Rain
5:53 PM 48.9 °F - 46.0 °F 90% 29.48 in 10.0 mi Calm Calm - 0.01 in   Overcast
6:53 PM 48.9 °F - 46.0 °F 90% 29.49 in 10.0 mi Calm Calm - 0.01 in Rain Light Rain
7:53 PM 46.9 °F - 45.0 °F 93% 29.50 in 8.0 mi Calm Calm - 0.01 in Rain Light Rain
8:53 PM 46.0 °F - 44.1 °F 93% 29.51 in 10.0 mi Calm Calm - 0.01 in   Overcast
9:10 PM 46.4 °F - 44.6 °F 93% 29.50 in 10.0 mi Calm Calm - N/A   Overcast
9:53 PM 46.0 °F - 44.1 °F 93% 29.51 in 10.0 mi Calm Calm - 0.01 in   Overcast
10:53 PM 46.0 °F - 44.1 °F 93% 29.52 in 10.0 mi Calm Calm - N/A   Overcast
11:20 PM 46.4 °F - 44.6 °F 93% 29.52 in 10.0 mi Calm Calm - N/A   Overcast
11:53 PM 45.0 °F - 44.1 °F 97% 29.53 in 10.0 mi Calm Calm - N/A   Overcast